owner,sensor,date,latitude,longitude,air_pressure(mBar),qcFlag 
WAVCIS,ioos:station:WAVCIS:CSI03:1,2017-01-01T00:00:00Z,29.4412,-92.0613,1004.74,11111222 
WAVCIS,ioos:station:WAVCIS:CSI03:1,2017-01-01T01:00:00Z,29.4412,-92.0613,1005.37,11111222 
WAVCIS,ioos:station:WAVCIS:CSI03:1,2017-01-01T02:00:00Z,29.4412,-92.0613,1006.05,11111222 
WAVCIS,ioos:station:WAVCIS:CSI03:1,2017-01-01T03:00:00Z,29.4412,-92.0613,1006.61,11111222 
WAVCIS,ioos:station:WAVCIS:CSI03:1,2017-01-01T04:00:00Z,29.4412,-92.0613,1006.44,11111222 
WAVCIS,ioos:station:WAVCIS:CSI03:1,2017-01-01T05:00:00Z,29.4412,-92.0613,1006.33,11111222 
WAVCIS,ioos:station:WAVCIS:CSI03:1,2017-01-01T06:00:00Z,29.4412,-92.0613,1005.89,11111222 
WAVCIS,ioos:station:WAVCIS:CSI03:1,2017-01-01T07:00:00Z,29.4412,-92.0613,1005.87,11111222 
WAVCIS,ioos:station:WAVCIS:CSI03:1,2017-01-01T08:00:00Z,29.4412,-92.0613,1005.75,11111222 
WAVCIS,ioos:station:WAVCIS:CSI03:1,2017-01-01T09:00:00Z,29.4412,-92.0613,1005.89,11111222 
WAVCIS,ioos:station:WAVCIS:CSI03:1,2017-01-01T10:00:00Z,29.4412,-92.0613,1006.16,11111222 
WAVCIS,ioos:station:WAVCIS:CSI03:1,2017-01-01T11:00:00Z,29.4412,-92.0613,1005.82,11111222 
WAVCIS,ioos:station:WAVCIS:CSI03:1,2017-01-01T12:00:00Z,29.4412,-92.0613,1006.14,11111222 
WAVCIS,ioos:station:WAVCIS:CSI03:1,2017-01-01T13:00:00Z,29.4412,-92.0613,1006.52,11111222 
WAVCIS,ioos:station:WAVCIS:CSI03:1,2017-01-01T14:00:00Z,29.4412,-92.0613,1007.12,11111222 
WAVCIS,ioos:station:WAVCIS:CSI03:1,2017-01-01T15:00:00Z,29.4412,-92.0613,1007.75,11111222 
WAVCIS,ioos:station:WAVCIS:CSI03:1,2017-01-01T16:00:00Z,29.4412,-92.0613,1008.17,11111222 
WAVCIS,ioos:station:WAVCIS:CSI03:1,2017-01-01T17:00:00Z,29.4412,-92.0613,1008.28,11111222 
WAVCIS,ioos:station:WAVCIS:CSI03:1,2017-01-01T18:00:00Z,29.4412,-92.0613,1007.16,11111222 
WAVCIS,ioos:station:WAVCIS:CSI03:1,2017-01-01T19:00:00Z,29.4412,-92.0613,1006.7,11111222 
WAVCIS,ioos:station:WAVCIS:CSI03:1,2017-01-01T20:00:00Z,29.4412,-92.0613,1006.84,11111222 
WAVCIS,ioos:station:WAVCIS:CSI03:1,2017-01-01T21:00:00Z,29.4412,-92.0613,1006.92,11111222 
WAVCIS,ioos:station:WAVCIS:CSI03:1,2017-01-01T22:00:00Z,29.4412,-92.0613,1006.76,11111222 
WAVCIS,ioos:station:WAVCIS:CSI03:1,2017-01-01T23:00:00Z,29.4412,-92.0613,1004.36,11111222 
WAVCIS,ioos:station:WAVCIS:CSI03:1,2017-01-02T00:00:00Z,29.4412,-92.0613,1006.37,11111222 
WAVCIS,ioos:station:WAVCIS:CSI03:1,2017-01-02T01:00:00Z,29.4412,-92.0613,1006.41,11111222 
WAVCIS,ioos:station:WAVCIS:CSI03:1,2017-01-02T02:00:00Z,29.4412,-92.0613,1007.01,11111222 
WAVCIS,ioos:station:WAVCIS:CSI03:1,2017-01-02T03:00:00Z,29.4412,-92.0613,1007.27,11111222 
WAVCIS,ioos:station:WAVCIS:CSI03:1,2017-01-02T04:00:00Z,29.4412,-92.0613,1007.43,11111222 
WAVCIS,ioos:station:WAVCIS:CSI03:1,2017-01-02T05:00:00Z,29.4412,-92.0613,1007.21,11111222 
WAVCIS,ioos:station:WAVCIS:CSI03:1,2017-01-02T06:00:00Z,29.4412,-92.0613,1007.21,11111222 
WAVCIS,ioos:station:WAVCIS:CSI03:1,2017-01-02T07:00:00Z,29.4412,-92.0613,1006.6,11111222 
WAVCIS,ioos:station:WAVCIS:CSI03:1,2017-01-02T08:00:00Z,29.4412,-92.0613,1006.81,11111222 
WAVCIS,ioos:station:WAVCIS:CSI03:1,2017-01-02T09:00:00Z,29.4412,-92.0613,1006.65,11111222 
WAVCIS,ioos:station:WAVCIS:CSI03:1,2017-01-02T10:00:00Z,29.4412,-92.0613,1006.26,11111222 
WAVCIS,ioos:station:WAVCIS:CSI03:1,2017-01-02T11:00:00Z,29.4412,-92.0613,1006.43,11111222 
WAVCIS,ioos:station:WAVCIS:CSI03:1,2017-01-02T12:00:00Z,29.4412,-92.0613,1006.43,11111222 
WAVCIS,ioos:station:WAVCIS:CSI03:1,2017-01-02T13:00:00Z,29.4412,-92.0613,1006.01,11111222 
WAVCIS,ioos:station:WAVCIS:CSI03:1,2017-01-02T14:00:00Z,29.4412,-92.0613,1006.12,11111222 
WAVCIS,ioos:station:WAVCIS:CSI03:1,2017-01-02T15:00:00Z,29.4412,-92.0613,1006.08,11111222 
WAVCIS,ioos:station:WAVCIS:CSI03:1,2017-01-02T16:00:00Z,29.4412,-92.0613,1005.96,11111222 
WAVCIS,ioos:station:WAVCIS:CSI03:1,2017-01-02T17:00:00Z,29.4412,-92.0613,1005.64,11111222 
WAVCIS,ioos:station:WAVCIS:CSI03:1,2017-01-02T18:00:00Z,29.4412,-92.0613,1004.96,11111222 
WAVCIS,ioos:station:WAVCIS:CSI03:1,2017-01-02T19:00:00Z,29.4412,-92.0613,1004.24,11111222 
WAVCIS,ioos:station:WAVCIS:CSI03:1,2017-01-02T20:00:00Z,29.4412,-92.0613,1004.54,11111222 
WAVCIS,ioos:station:WAVCIS:CSI03:1,2017-01-02T21:00:00Z,29.4412,-92.0613,1005.16,11111222 
WAVCIS,ioos:station:WAVCIS:CSI03:1,2017-01-02T22:00:00Z,29.4412,-92.0613,1005.03,11111222 
WAVCIS,ioos:station:WAVCIS:CSI03:1,2017-01-02T23:00:00Z,29.4412,-92.0613,1005.01,11111222 
WAVCIS,ioos:station:WAVCIS:CSI03:1,2017-01-03T00:00:00Z,29.4412,-92.0613,1005.79,11111222 
WAVCIS,ioos:station:WAVCIS:CSI03:1,2017-01-03T01:00:00Z,29.4412,-92.0613,1006.16,11111222 
WAVCIS,ioos:station:WAVCIS:CSI03:1,2017-01-03T02:00:00Z,29.4412,-92.0613,1006.33,11111222 
WAVCIS,ioos:station:WAVCIS:CSI03:1,2017-01-03T03:00:00Z,29.4412,-92.0613,1006.66,11111222 
WAVCIS,ioos:station:WAVCIS:CSI03:1,2017-01-03T04:00:00Z,29.4412,-92.0613,1007.2,11111222 
WAVCIS,ioos:station:WAVCIS:CSI03:1,2017-01-03T05:00:00Z,29.4412,-92.0613,1008.21,11111222 
WAVCIS,ioos:station:WAVCIS:CSI03:1,2017-01-03T06:00:00Z,29.4412,-92.0613,1008.77,11111222 
WAVCIS,ioos:station:WAVCIS:CSI03:1,2017-01-03T07:00:00Z,29.4412,-92.0613,1008.42,11111222 
WAVCIS,ioos:station:WAVCIS:CSI03:1,2017-01-03T08:00:00Z,29.4412,-92.0613,1008.46,11111222 
WAVCIS,ioos:station:WAVCIS:CSI03:1,2017-01-03T09:00:00Z,29.4412,-92.0613,1008.57,11111222 
WAVCIS,ioos:station:WAVCIS:CSI03:1,2017-01-03T10:00:00Z,29.4412,-92.0613,1008.33,11111222 
WAVCIS,ioos:station:WAVCIS:CSI03:1,2017-01-03T11:00:00Z,29.4412,-92.0613,1008.49,11111222 
WAVCIS,ioos:station:WAVCIS:CSI03:1,2017-01-03T12:00:00Z,29.4412,-92.0613,1008.35,11111222 
WAVCIS,ioos:station:WAVCIS:CSI03:1,2017-01-03T13:00:00Z,29.4412,-92.0613,1008.22,11111222 
WAVCIS,ioos:station:WAVCIS:CSI03:1,2017-01-03T14:00:00Z,29.4412,-92.0613,1008.91,11111222 
WAVCIS,ioos:station:WAVCIS:CSI03:1,2017-01-03T15:00:00Z,29.4412,-92.0613,1009.39,11111222 
WAVCIS,ioos:station:WAVCIS:CSI03:1,2017-01-03T16:00:00Z,29.4412,-92.0613,1010.37,11111222 
WAVCIS,ioos:station:WAVCIS:CSI03:1,2017-01-03T17:00:00Z,29.4412,-92.0613,1010.33,11111222 
WAVCIS,ioos:station:WAVCIS:CSI03:1,2017-01-03T18:00:00Z,29.4412,-92.0613,1009.32,11111222 
WAVCIS,ioos:station:WAVCIS:CSI03:1,2017-01-03T19:00:00Z,29.4412,-92.0613,1008.65,11111222 
WAVCIS,ioos:station:WAVCIS:CSI03:1,2017-01-03T20:00:00Z,29.4412,-92.0613,1008.55,11111222 
WAVCIS,ioos:station:WAVCIS:CSI03:1,2017-01-03T21:00:00Z,29.4412,-92.0613,1008.23,11111222 
WAVCIS,ioos:station:WAVCIS:CSI03:1,2017-01-03T22:00:00Z,29.4412,-92.0613,1008.04,11111222 
WAVCIS,ioos:station:WAVCIS:CSI03:1,2017-01-03T23:00:00Z,29.4412,-92.0613,1007.97,11111222 
WAVCIS,ioos:station:WAVCIS:CSI03:1,2017-01-04T00:00:00Z,29.4412,-92.0613,1007.68,11111222 
WAVCIS,ioos:station:WAVCIS:CSI03:1,2017-01-04T01:00:00Z,29.4412,-92.0613,1007.78,11111222 
WAVCIS,ioos:station:WAVCIS:CSI03:1,2017-01-04T02:00:00Z,29.4412,-92.0613,1007.94,11111222 
WAVCIS,ioos:station:WAVCIS:CSI03:1,2017-01-04T03:00:00Z,29.4412,-92.0613,1008.05,11111222 
WAVCIS,ioos:station:WAVCIS:CSI03:1,2017-01-04T04:00:00Z,29.4412,-92.0613,1008.7,11111222 
WAVCIS,ioos:station:WAVCIS:CSI03:1,2017-01-04T05:00:00Z,29.4412,-92.0613,1008.83,11111222 
WAVCIS,ioos:station:WAVCIS:CSI03:1,2017-01-04T06:00:00Z,29.4412,-92.0613,1008.89,11111222 
WAVCIS,ioos:station:WAVCIS:CSI03:1,2017-01-04T07:00:00Z,29.4412,-92.0613,1008.9,11111222 
WAVCIS,ioos:station:WAVCIS:CSI03:1,2017-01-04T08:00:00Z,29.4412,-92.0613,1009.47,11111222 
WAVCIS,ioos:station:WAVCIS:CSI03:1,2017-01-04T09:00:00Z,29.4412,-92.0613,1009.73,11111222 
WAVCIS,ioos:station:WAVCIS:CSI03:1,2017-01-04T10:00:00Z,29.4412,-92.0613,1009.68,11111222 
WAVCIS,ioos:station:WAVCIS:CSI03:1,2017-01-04T11:00:00Z,29.4412,-92.0613,1010.15,11111222 
WAVCIS,ioos:station:WAVCIS:CSI03:1,2017-01-04T12:00:00Z,29.4412,-92.0613,1010.49,11111222 
WAVCIS,ioos:station:WAVCIS:CSI03:1,2017-01-04T13:00:00Z,29.4412,-92.0613,1011.33,11111222 
WAVCIS,ioos:station:WAVCIS:CSI03:1,2017-01-04T14:00:00Z,29.4412,-92.0613,1012.08,11111222 
WAVCIS,ioos:station:WAVCIS:CSI03:1,2017-01-04T15:00:00Z,29.4412,-92.0613,1012.96,11111222 
WAVCIS,ioos:station:WAVCIS:CSI03:1,2017-01-04T16:00:00Z,29.4412,-92.0613,1012.65,11111222 
WAVCIS,ioos:station:WAVCIS:CSI03:1,2017-01-04T17:00:00Z,29.4412,-92.0613,1013.13,11111222 
WAVCIS,ioos:station:WAVCIS:CSI03:1,2017-01-04T18:00:00Z,29.4412,-92.0613,1012.47,11111222 
WAVCIS,ioos:station:WAVCIS:CSI03:1,2017-01-04T19:00:00Z,29.4412,-92.0613,1011.29,11111222 
WAVCIS,ioos:station:WAVCIS:CSI03:1,2017-01-04T20:00:00Z,29.4412,-92.0613,1010.44,11111222 
WAVCIS,ioos:station:WAVCIS:CSI03:1,2017-01-04T21:00:00Z,29.4412,-92.0613,1010.06,11111222 
WAVCIS,ioos:station:WAVCIS:CSI03:1,2017-01-04T22:00:00Z,29.4412,-92.0613,1010.01,11111222 
WAVCIS,ioos:station:WAVCIS:CSI03:1,2017-01-04T23:00:00Z,29.4412,-92.0613,1009.9,11111222 
WAVCIS,ioos:station:WAVCIS:CSI03:1,2017-01-05T00:00:00Z,29.4412,-92.0613,1010.19,11111222 
WAVCIS,ioos:station:WAVCIS:CSI03:1,2017-01-05T01:00:00Z,29.4412,-92.0613,1009.96,11111222 
WAVCIS,ioos:station:WAVCIS:CSI03:1,2017-01-05T02:00:00Z,29.4412,-92.0613,1009.61,11111222 
WAVCIS,ioos:station:WAVCIS:CSI03:1,2017-01-05T03:00:00Z,29.4412,-92.0613,1010.09,11111222 
WAVCIS,ioos:station:WAVCIS:CSI03:1,2017-01-05T04:00:00Z,29.4412,-92.0613,1009.78,11111222 
WAVCIS,ioos:station:WAVCIS:CSI03:1,2017-01-05T05:00:00Z,29.4412,-92.0613,1009.35,11111222 
WAVCIS,ioos:station:WAVCIS:CSI03:1,2017-01-05T06:00:00Z,29.4412,-92.0613,1008.24,11111222 
WAVCIS,ioos:station:WAVCIS:CSI03:1,2017-01-05T07:00:00Z,29.4412,-92.0613,1007.93,11111222 
WAVCIS,ioos:station:WAVCIS:CSI03:1,2017-01-05T08:00:00Z,29.4412,-92.0613,1007.54,11111222 
WAVCIS,ioos:station:WAVCIS:CSI03:1,2017-01-05T09:00:00Z,29.4412,-92.0613,1007.49,11111222 
WAVCIS,ioos:station:WAVCIS:CSI03:1,2017-01-05T10:00:00Z,29.4412,-92.0613,1007.64,11111222 
WAVCIS,ioos:station:WAVCIS:CSI03:1,2017-01-05T11:00:00Z,29.4412,-92.0613,1007.64,11111222 
WAVCIS,ioos:station:WAVCIS:CSI03:1,2017-01-05T12:00:00Z,29.4412,-92.0613,1007.47,11111222 
WAVCIS,ioos:station:WAVCIS:CSI03:1,2017-01-05T13:00:00Z,29.4412,-92.0613,1007.67,11111222 
WAVCIS,ioos:station:WAVCIS:CSI03:1,2017-01-05T14:00:00Z,29.4412,-92.0613,1007.71,11111222 
WAVCIS,ioos:station:WAVCIS:CSI03:1,2017-01-05T15:00:00Z,29.4412,-92.0613,1007.95,11111222 
WAVCIS,ioos:station:WAVCIS:CSI03:1,2017-01-05T16:00:00Z,29.4412,-92.0613,1008.16,11111222 
WAVCIS,ioos:station:WAVCIS:CSI03:1,2017-01-05T17:00:00Z,29.4412,-92.0613,1007.67,11111222 
WAVCIS,ioos:station:WAVCIS:CSI03:1,2017-01-05T18:00:00Z,29.4412,-92.0613,1006.83,11111222 
WAVCIS,ioos:station:WAVCIS:CSI03:1,2017-01-05T19:00:00Z,29.4412,-92.0613,1005.5,11111222 
WAVCIS,ioos:station:WAVCIS:CSI03:1,2017-01-05T20:00:00Z,29.4412,-92.0613,1004.72,11111222 
WAVCIS,ioos:station:WAVCIS:CSI03:1,2017-01-05T21:00:00Z,29.4412,-92.0613,1004.38,11111222 
WAVCIS,ioos:station:WAVCIS:CSI03:1,2017-01-05T22:00:00Z,29.4412,-92.0613,1004.38,11111222 
WAVCIS,ioos:station:WAVCIS:CSI03:1,2017-01-05T23:00:00Z,29.4412,-92.0613,1004.63,11111222 
WAVCIS,ioos:station:WAVCIS:CSI03:1,2017-01-06T00:00:00Z,29.4412,-92.0613,1004.46,11111222 
WAVCIS,ioos:station:WAVCIS:CSI03:1,2017-01-06T01:00:00Z,29.4412,-92.0613,1004.71,11111222 
WAVCIS,ioos:station:WAVCIS:CSI03:1,2017-01-06T02:00:00Z,29.4412,-92.0613,1006.11,11111222 
WAVCIS,ioos:station:WAVCIS:CSI03:1,2017-01-06T03:00:00Z,29.4412,-92.0613,1006.41,11111222 
WAVCIS,ioos:station:WAVCIS:CSI03:1,2017-01-06T04:00:00Z,29.4412,-92.0613,1006.6,11111222 
WAVCIS,ioos:station:WAVCIS:CSI03:1,2017-01-06T05:00:00Z,29.4412,-92.0613,1006.72,11111222 
WAVCIS,ioos:station:WAVCIS:CSI03:1,2017-01-06T06:00:00Z,29.4412,-92.0613,1006.65,11111222 
WAVCIS,ioos:station:WAVCIS:CSI03:1,2017-01-06T07:00:00Z,29.4412,-92.0613,1006.35,11111222 
WAVCIS,ioos:station:WAVCIS:CSI03:1,2017-01-06T08:00:00Z,29.4412,-92.0613,1006.61,11111222 
WAVCIS,ioos:station:WAVCIS:CSI03:1,2017-01-06T09:00:00Z,29.4412,-92.0613,1006.49,11111222 
WAVCIS,ioos:station:WAVCIS:CSI03:1,2017-01-06T10:00:00Z,29.4412,-92.0613,1006.41,11111222 
WAVCIS,ioos:station:WAVCIS:CSI03:1,2017-01-06T11:00:00Z,29.4412,-92.0613,1006.2,11111222 
WAVCIS,ioos:station:WAVCIS:CSI03:1,2017-01-06T12:00:00Z,29.4412,-92.0613,1007.21,11111222 
WAVCIS,ioos:station:WAVCIS:CSI03:1,2017-01-06T13:00:00Z,29.4412,-92.0613,1008.0,11111222 
WAVCIS,ioos:station:WAVCIS:CSI03:1,2017-01-06T14:00:00Z,29.4412,-92.0613,1008.95,11111222 
WAVCIS,ioos:station:WAVCIS:CSI03:1,2017-01-06T15:00:00Z,29.4412,-92.0613,1010.24,11111222 
WAVCIS,ioos:station:WAVCIS:CSI03:1,2017-01-06T16:00:00Z,29.4412,-92.0613,1010.66,11111222 
WAVCIS,ioos:station:WAVCIS:CSI03:1,2017-01-06T17:00:00Z,29.4412,-92.0613,1009.88,11111222 
WAVCIS,ioos:station:WAVCIS:CSI03:1,2017-01-06T18:00:00Z,29.4412,-92.0613,1010.33,11111222 
WAVCIS,ioos:station:WAVCIS:CSI03:1,2017-01-06T19:00:00Z,29.4412,-92.0613,1008.8,11111222 
WAVCIS,ioos:station:WAVCIS:CSI03:1,2017-01-06T20:00:00Z,29.4412,-92.0613,1009.58,11111222 
WAVCIS,ioos:station:WAVCIS:CSI03:1,2017-01-06T21:00:00Z,29.4412,-92.0613,1008.83,11111222 
WAVCIS,ioos:station:WAVCIS:CSI03:1,2017-01-06T22:00:00Z,29.4412,-92.0613,1010.37,11111222 
WAVCIS,ioos:station:WAVCIS:CSI03:1,2017-01-06T23:00:00Z,29.4412,-92.0613,1011.86,11111222 
WAVCIS,ioos:station:WAVCIS:CSI03:1,2017-01-07T00:00:00Z,29.4412,-92.0613,1012.93,11111222 
WAVCIS,ioos:station:WAVCIS:CSI03:1,2017-01-07T01:00:00Z,29.4412,-92.0613,1014.03,11111222 
WAVCIS,ioos:station:WAVCIS:CSI03:1,2017-01-07T02:00:00Z,29.4412,-92.0613,1015.64,11111222 
WAVCIS,ioos:station:WAVCIS:CSI03:1,2017-01-07T03:00:00Z,29.4412,-92.0613,1017.23,11111222 
WAVCIS,ioos:station:WAVCIS:CSI03:1,2017-01-07T04:00:00Z,29.4412,-92.0613,1018.33,11111222 
WAVCIS,ioos:station:WAVCIS:CSI03:1,2017-01-07T05:00:00Z,29.4412,-92.0613,1018.95,11111222 
WAVCIS,ioos:station:WAVCIS:CSI03:1,2017-01-07T06:00:00Z,29.4412,-92.0613,1019.31,11111222 
WAVCIS,ioos:station:WAVCIS:CSI03:1,2017-01-07T07:00:00Z,29.4412,-92.0613,1020.39,11111222 
WAVCIS,ioos:station:WAVCIS:CSI03:1,2017-01-07T08:00:00Z,29.4412,-92.0613,1021.14,11111222 
WAVCIS,ioos:station:WAVCIS:CSI03:1,2017-01-07T09:00:00Z,29.4412,-92.0613,1022.26,11111222 
WAVCIS,ioos:station:WAVCIS:CSI03:1,2017-01-07T10:00:00Z,29.4412,-92.0613,1023.1,11111222 
WAVCIS,ioos:station:WAVCIS:CSI03:1,2017-01-07T11:00:00Z,29.4412,-92.0613,1024.18,11111222 
WAVCIS,ioos:station:WAVCIS:CSI03:1,2017-01-07T12:00:00Z,29.4412,-92.0613,1025.43,11111222 
WAVCIS,ioos:station:WAVCIS:CSI03:1,2017-01-07T13:00:00Z,29.4412,-92.0613,1026.88,11111222 
WAVCIS,ioos:station:WAVCIS:CSI03:1,2017-01-07T14:00:00Z,29.4412,-92.0613,1028.69,11111222 
WAVCIS,ioos:station:WAVCIS:CSI03:1,2017-01-07T15:00:00Z,29.4412,-92.0613,1029.6,11111222 
WAVCIS,ioos:station:WAVCIS:CSI03:1,2017-01-07T16:00:00Z,29.4412,-92.0613,1030.02,11111222 
WAVCIS,ioos:station:WAVCIS:CSI03:1,2017-01-07T17:00:00Z,29.4412,-92.0613,1030.68,11111222 
WAVCIS,ioos:station:WAVCIS:CSI03:1,2017-01-07T18:00:00Z,29.4412,-92.0613,1030.05,11111222 
WAVCIS,ioos:station:WAVCIS:CSI03:1,2017-01-07T19:00:00Z,29.4412,-92.0613,1029.4,11111222 
WAVCIS,ioos:station:WAVCIS:CSI03:1,2017-01-07T20:00:00Z,29.4412,-92.0613,1028.94,11111222 
WAVCIS,ioos:station:WAVCIS:CSI03:1,2017-01-07T21:00:00Z,29.4412,-92.0613,1029.05,11111222 
WAVCIS,ioos:station:WAVCIS:CSI03:1,2017-01-07T22:00:00Z,29.4412,-92.0613,1029.61,11111222 
WAVCIS,ioos:station:WAVCIS:CSI03:1,2017-01-07T23:00:00Z,29.4412,-92.0613,1029.99,11111222 
WAVCIS,ioos:station:WAVCIS:CSI03:1,2017-01-08T00:00:00Z,29.4412,-92.0613,1031.02,11111222 
WAVCIS,ioos:station:WAVCIS:CSI03:1,2017-01-08T01:00:00Z,29.4412,-92.0613,1032.06,11111222 
WAVCIS,ioos:station:WAVCIS:CSI03:1,2017-01-08T02:00:00Z,29.4412,-92.0613,1032.59,11111222 
WAVCIS,ioos:station:WAVCIS:CSI03:1,2017-01-08T03:00:00Z,29.4412,-92.0613,1033.1,11111222 
WAVCIS,ioos:station:WAVCIS:CSI03:1,2017-01-08T04:00:00Z,29.4412,-92.0613,1033.41,11111222 
WAVCIS,ioos:station:WAVCIS:CSI03:1,2017-01-08T05:00:00Z,29.4412,-92.0613,1032.96,11111222 
WAVCIS,ioos:station:WAVCIS:CSI03:1,2017-01-08T06:00:00Z,29.4412,-92.0613,1033.2,11111222 
WAVCIS,ioos:station:WAVCIS:CSI03:1,2017-01-08T07:00:00Z,29.4412,-92.0613,1032.9,11111222 
WAVCIS,ioos:station:WAVCIS:CSI03:1,2017-01-08T08:00:00Z,29.4412,-92.0613,1032.55,11111222 
WAVCIS,ioos:station:WAVCIS:CSI03:1,2017-01-08T09:00:00Z,29.4412,-92.0613,1033.44,11111222 
WAVCIS,ioos:station:WAVCIS:CSI03:1,2017-01-08T10:00:00Z,29.4412,-92.0613,1033.38,11111222 
WAVCIS,ioos:station:WAVCIS:CSI03:1,2017-01-08T11:00:00Z,29.4412,-92.0613,1033.41,11111222 
WAVCIS,ioos:station:WAVCIS:CSI03:1,2017-01-08T12:00:00Z,29.4412,-92.0613,1032.97,11111222 
WAVCIS,ioos:station:WAVCIS:CSI03:1,2017-01-08T13:00:00Z,29.4412,-92.0613,1034.16,11111222 
WAVCIS,ioos:station:WAVCIS:CSI03:1,2017-01-08T14:00:00Z,29.4412,-92.0613,1034.46,11111222 
WAVCIS,ioos:station:WAVCIS:CSI03:1,2017-01-08T15:00:00Z,29.4412,-92.0613,1034.75,11111222 
WAVCIS,ioos:station:WAVCIS:CSI03:1,2017-01-08T16:00:00Z,29.4412,-92.0613,1034.49,11111222 
WAVCIS,ioos:station:WAVCIS:CSI03:1,2017-01-08T17:00:00Z,29.4412,-92.0613,1034.03,11111222 
WAVCIS,ioos:station:WAVCIS:CSI03:1,2017-01-08T18:00:00Z,29.4412,-92.0613,1032.78,11111222 
WAVCIS,ioos:station:WAVCIS:CSI03:1,2017-01-08T19:00:00Z,29.4412,-92.0613,1032.12,11111222 
WAVCIS,ioos:station:WAVCIS:CSI03:1,2017-01-08T20:00:00Z,29.4412,-92.0613,1032.01,11111222 
WAVCIS,ioos:station:WAVCIS:CSI03:1,2017-01-08T21:00:00Z,29.4412,-92.0613,1031.47,11111222 
WAVCIS,ioos:station:WAVCIS:CSI03:1,2017-01-08T22:00:00Z,29.4412,-92.0613,1031.21,11111222 
WAVCIS,ioos:station:WAVCIS:CSI03:1,2017-01-08T23:00:00Z,29.4412,-92.0613,1030.35,11111222 
WAVCIS,ioos:station:WAVCIS:CSI03:1,2017-01-09T00:00:00Z,29.4412,-92.0613,1030.13,11111222 
WAVCIS,ioos:station:WAVCIS:CSI03:1,2017-01-09T01:00:00Z,29.4412,-92.0613,1029.7,11111222 
WAVCIS,ioos:station:WAVCIS:CSI03:1,2017-01-09T02:00:00Z,29.4412,-92.0613,1029.86,11111222 
WAVCIS,ioos:station:WAVCIS:CSI03:1,2017-01-09T03:00:00Z,29.4412,-92.0613,1030.01,11111222 
WAVCIS,ioos:station:WAVCIS:CSI03:1,2017-01-09T04:00:00Z,29.4412,-92.0613,1030.37,11111222 
WAVCIS,ioos:station:WAVCIS:CSI03:1,2017-01-09T05:00:00Z,29.4412,-92.0613,1029.9,11111222 
WAVCIS,ioos:station:WAVCIS:CSI03:1,2017-01-09T06:00:00Z,29.4412,-92.0613,1029.03,11111222 
WAVCIS,ioos:station:WAVCIS:CSI03:1,2017-01-09T07:00:00Z,29.4412,-92.0613,1028.07,11111222 
WAVCIS,ioos:station:WAVCIS:CSI03:1,2017-01-09T08:00:00Z,29.4412,-92.0613,1027.98,11111222 
WAVCIS,ioos:station:WAVCIS:CSI03:1,2017-01-09T09:00:00Z,29.4412,-92.0613,1027.87,11111222 
WAVCIS,ioos:station:WAVCIS:CSI03:1,2017-01-09T10:00:00Z,29.4412,-92.0613,1027.8,11111222 
WAVCIS,ioos:station:WAVCIS:CSI03:1,2017-01-09T11:00:00Z,29.4412,-92.0613,1027.49,11111222 
WAVCIS,ioos:station:WAVCIS:CSI03:1,2017-01-09T12:00:00Z,29.4412,-92.0613,1027.28,11111222 
WAVCIS,ioos:station:WAVCIS:CSI03:1,2017-01-09T13:00:00Z,29.4412,-92.0613,1027.13,11111222 
WAVCIS,ioos:station:WAVCIS:CSI03:1,2017-01-09T14:00:00Z,29.4412,-92.0613,1026.99,11111222 
WAVCIS,ioos:station:WAVCIS:CSI03:1,2017-01-09T15:00:00Z,29.4412,-92.0613,1026.79,11111222 
WAVCIS,ioos:station:WAVCIS:CSI03:1,2017-01-09T16:00:00Z,29.4412,-92.0613,1027.27,11111222 
WAVCIS,ioos:station:WAVCIS:CSI03:1,2017-01-09T17:00:00Z,29.4412,-92.0613,1026.78,11111222 
WAVCIS,ioos:station:WAVCIS:CSI03:1,2017-01-09T18:00:00Z,29.4412,-92.0613,1024.94,11111222 
WAVCIS,ioos:station:WAVCIS:CSI03:1,2017-01-09T19:00:00Z,29.4412,-92.0613,1023.7,11111222 
WAVCIS,ioos:station:WAVCIS:CSI03:1,2017-01-09T20:00:00Z,29.4412,-92.0613,1022.61,11111222 
WAVCIS,ioos:station:WAVCIS:CSI03:1,2017-01-09T21:00:00Z,29.4412,-92.0613,1022.54,11111222 
WAVCIS,ioos:station:WAVCIS:CSI03:1,2017-01-09T22:00:00Z,29.4412,-92.0613,1021.67,11111222 
WAVCIS,ioos:station:WAVCIS:CSI03:1,2017-01-09T23:00:00Z,29.4412,-92.0613,1022.48,11111222 
WAVCIS,ioos:station:WAVCIS:CSI03:1,2017-01-10T00:00:00Z,29.4412,-92.0613,1022.04,11111222 
WAVCIS,ioos:station:WAVCIS:CSI03:1,2017-01-10T01:00:00Z,29.4412,-92.0613,1021.57,11111222 
WAVCIS,ioos:station:WAVCIS:CSI03:1,2017-01-10T02:00:00Z,29.4412,-92.0613,1021.18,11111222 
WAVCIS,ioos:station:WAVCIS:CSI03:1,2017-01-10T03:00:00Z,29.4412,-92.0613,1021.12,11111222 
WAVCIS,ioos:station:WAVCIS:CSI03:1,2017-01-10T04:00:00Z,29.4412,-92.0613,1020.95,11111222 
WAVCIS,ioos:station:WAVCIS:CSI03:1,2017-01-10T05:00:00Z,29.4412,-92.0613,1020.56,11111222 
WAVCIS,ioos:station:WAVCIS:CSI03:1,2017-01-10T06:00:00Z,29.4412,-92.0613,1019.28,11111222 
WAVCIS,ioos:station:WAVCIS:CSI03:1,2017-01-10T07:00:00Z,29.4412,-92.0613,1018.22,11111222 
WAVCIS,ioos:station:WAVCIS:CSI03:1,2017-01-10T08:00:00Z,29.4412,-92.0613,1017.76,11111222 
WAVCIS,ioos:station:WAVCIS:CSI03:1,2017-01-10T09:00:00Z,29.4412,-92.0613,1017.26,11111222 
WAVCIS,ioos:station:WAVCIS:CSI03:1,2017-01-10T10:00:00Z,29.4412,-92.0613,1016.77,11111222 
WAVCIS,ioos:station:WAVCIS:CSI03:1,2017-01-10T11:00:00Z,29.4412,-92.0613,1016.76,11111222 
WAVCIS,ioos:station:WAVCIS:CSI03:1,2017-01-10T12:00:00Z,29.4412,-92.0613,1016.42,11111222 
WAVCIS,ioos:station:WAVCIS:CSI03:1,2017-01-10T13:00:00Z,29.4412,-92.0613,1016.56,11111222 
WAVCIS,ioos:station:WAVCIS:CSI03:1,2017-01-10T14:00:00Z,29.4412,-92.0613,1016.69,11111222 
WAVCIS,ioos:station:WAVCIS:CSI03:1,2017-01-10T15:00:00Z,29.4412,-92.0613,1016.21,11111222 
WAVCIS,ioos:station:WAVCIS:CSI03:1,2017-01-10T16:00:00Z,29.4412,-92.0613,1016.23,11111222 
WAVCIS,ioos:station:WAVCIS:CSI03:1,2017-01-10T17:00:00Z,29.4412,-92.0613,1017.42,11111222 
WAVCIS,ioos:station:WAVCIS:CSI03:1,2017-01-10T18:00:00Z,29.4412,-92.0613,1016.97,11111222 
WAVCIS,ioos:station:WAVCIS:CSI03:1,2017-01-10T19:00:00Z,29.4412,-92.0613,1015.63,11111222 
WAVCIS,ioos:station:WAVCIS:CSI03:1,2017-01-10T20:00:00Z,29.4412,-92.0613,1015.61,11111222 
WAVCIS,ioos:station:WAVCIS:CSI03:1,2017-01-10T21:00:00Z,29.4412,-92.0613,1014.77,11111222 
WAVCIS,ioos:station:WAVCIS:CSI03:1,2017-01-10T22:00:00Z,29.4412,-92.0613,1014.36,11111222 
WAVCIS,ioos:station:WAVCIS:CSI03:1,2017-01-10T23:00:00Z,29.4412,-92.0613,1014.64,11111222 
WAVCIS,ioos:station:WAVCIS:CSI03:1,2017-01-11T00:00:00Z,29.4412,-92.0613,1014.75,11111222 
WAVCIS,ioos:station:WAVCIS:CSI03:1,2017-01-11T01:00:00Z,29.4412,-92.0613,1015.22,11111222 
WAVCIS,ioos:station:WAVCIS:CSI03:1,2017-01-11T02:00:00Z,29.4412,-92.0613,1014.98,11111222 
WAVCIS,ioos:station:WAVCIS:CSI03:1,2017-01-11T03:00:00Z,29.4412,-92.0613,1015.06,11111222 
WAVCIS,ioos:station:WAVCIS:CSI03:1,2017-01-11T04:00:00Z,29.4412,-92.0613,1015.22,11111222 
WAVCIS,ioos:station:WAVCIS:CSI03:1,2017-01-11T05:00:00Z,29.4412,-92.0613,1015.56,11111222 
WAVCIS,ioos:station:WAVCIS:CSI03:1,2017-01-11T06:00:00Z,29.4412,-92.0613,1015.01,11111222 
WAVCIS,ioos:station:WAVCIS:CSI03:1,2017-01-11T07:00:00Z,29.4412,-92.0613,1014.91,11111222 
WAVCIS,ioos:station:WAVCIS:CSI03:1,2017-01-11T08:00:00Z,29.4412,-92.0613,1014.8,11111222 
WAVCIS,ioos:station:WAVCIS:CSI03:1,2017-01-11T09:00:00Z,29.4412,-92.0613,1014.46,11111222 
WAVCIS,ioos:station:WAVCIS:CSI03:1,2017-01-11T10:00:00Z,29.4412,-92.0613,1013.45,11111222 
WAVCIS,ioos:station:WAVCIS:CSI03:1,2017-01-11T11:00:00Z,29.4412,-92.0613,1013.81,11111222 
WAVCIS,ioos:station:WAVCIS:CSI03:1,2017-01-11T12:00:00Z,29.4412,-92.0613,1013.97,11111222 
WAVCIS,ioos:station:WAVCIS:CSI03:1,2017-01-11T13:00:00Z,29.4412,-92.0613,1014.36,11111222 
WAVCIS,ioos:station:WAVCIS:CSI03:1,2017-01-11T14:00:00Z,29.4412,-92.0613,1015.08,11111222 
WAVCIS,ioos:station:WAVCIS:CSI03:1,2017-01-11T15:00:00Z,29.4412,-92.0613,1015.6,11111222 
WAVCIS,ioos:station:WAVCIS:CSI03:1,2017-01-11T16:00:00Z,29.4412,-92.0613,1015.49,11111222 
WAVCIS,ioos:station:WAVCIS:CSI03:1,2017-01-11T17:00:00Z,29.4412,-92.0613,1015.47,11111222 
WAVCIS,ioos:station:WAVCIS:CSI03:1,2017-01-11T18:00:00Z,29.4412,-92.0613,1014.67,11111222 
WAVCIS,ioos:station:WAVCIS:CSI03:1,2017-01-11T19:00:00Z,29.4412,-92.0613,1013.88,11111222 
WAVCIS,ioos:station:WAVCIS:CSI03:1,2017-01-11T20:00:00Z,29.4412,-92.0613,1013.59,11111222 
WAVCIS,ioos:station:WAVCIS:CSI03:1,2017-01-11T21:00:00Z,29.4412,-92.0613,1013.33,11111222 
WAVCIS,ioos:station:WAVCIS:CSI03:1,2017-01-11T22:00:00Z,29.4412,-92.0613,1013.07,11111222 